Showing default

CALSPHERE 2, 902

Orbit data source: Space-Track

CALSPHERE 2, 902 is a payload satellite owned by NRL (US) in LEO that was launched on Tue, 06 Oct 1964 UTC via a THOR ABLESTAR launch vehicle from the Air Force Western Test Range (AFWTR). Payload-class satellites include a variety of spacecraft equipped with specific instruments for various scientific and technological missions. These include communications satellites like Starlink; space stations such as the ISS; scientific satellites like the Hubble; Earth observation satellites from companies like Planet Labs, Umbra, and HawkEye 360; GPS; miniature CubeSats for education and research; and military/defense satellites.

Loading next visibility...
Identifier
902, 1964-063E
Orbit
LEO
Country
Flag of USUS
Related business
Manufacturer
NRL
Mission
Operational spacecraft
Bus & Motor
NRL 14", Unknown motor
Mass
10 kg wet, 10 kg dry
Launch date (UTC)
1964-10-06 (62 years ago)
Launch vehicle
THOR ABLESTAR
Launch site
Air Force Western Test Range (AFWTR)
Object type
Payload
Rocket body
Debris
Shape & HBR
Unknown
Radar Cross Section
Small (<0.1 m²)

Expand to show TLE details & history
Last TLE update: 1 day ago

TLE from 1 day ago
0 CALSPHERE 2
1 00902U 64063E   26135.28495774  .00000017  00000-0  12640-4 0  9998
2 00902  90.2367  75.0032 0017531 328.6408 179.3120 13.52897534851818
Epoch: 2026-05-15T06:50Z
TLE epoch observation values (Epoch: 2026-05-15T06:50:20.348Z)
Latitude
32.09994°
Longitude
-80.45234°
Altitude
1,078.839 km
Speed
7.309 km/s
True Right ascension
17h 00m 36s
True Declination
31° 57' 07"
Sunlit
Object was in full shadow at epoch
Visualization orbit readout
Latitude
Unknown
Longitude
Unknown
Altitude
Unknown
Speed
Unknown
Apparent Right ascension
Unknown
Apparent Declination
Unknown
Sunlit
N/A
Visualization observer readout
Local Sidereal Time
19:07:30
Azimuth
Unknown
Elevation
Unknown
Doppler factor
Unknown
Orbital elements
Apogee altitude
1,071.7 km
Perigee altitude
1,045.625 km
Semi-major axis
7,436.8 km
Eccentricity
0.00175
Inclination
90.2367°
RAAN
75.0032°
Arg. of periapsis
328.6408°
True anomaly
179.31441°
Mean anomaly
179.312°
Eccentric anomaly
179.3132°
Mean motion
3.38426 °/min
Orbital period
106.37 mins
BSTAR
0.00001264
Loading maneuver chart data...
Computing Atmospheric mass density...
Loading historical data...
Loading historical data...
Loading historical data...
Loading historical data...
Loading historical data...
Loading historical data...
Loading historical data...

Documentation

Showing up to 5 results
|